Weather observations for the past three days for
Harlan
Imperial (Metric)
Date Time (edt) Wind (mph) Vis. (mi.) Weather Sky Cond. Temperature (ºF) Relative Humidity Wind Chill (°F) Heat Index (°F) Pressure Precipitation (in)
Air Dwpt 6 hour altimeter (in) sea level (mb) 1 hr 3 hr 6 hr
Max. Min.
23 23:15 Calm 0.75 Overcast OVC002 74.5 74.5 100% 29.91 0.0
23 22:55 Calm 4.00 Overcast SCT002 BKN023 OVC043 74.7 74.7 100% 29.91 0.0 0.08
23 22:35 Calm 2.50 Overcast SCT002 BKN025 OVC037 74.5 74.5 100% 29.91 0.0
23 22:15 Calm 4.00 Overcast OVC030 74.3 74.3 100% 29.9 0.0
23 21:55 Calm 5.00 Overcast SCT030 BKN035 OVC060 75 75 100% 72 29.89 0.0 0.01
23 21:35 Calm 4.00 Overcast BKN037 BKN043 OVC048 74.8 74.8 100% 29.9 0.0 0.01
23 20:55 Calm 7.00 Mostly Cloudy SCT027 SCT034 BKN048 75.6 75.6 100% 74 29.9 0.0 0.07
23 19:55 Calm 7.00 Overcast OVC060 83.1 70.2 89.4 83.1 65% 87 29.87 0.0
23 19:35 Calm 7.00 Overcast OVC060 84.4 69.8 62% 89 29.88 0.0
23 19:15 Calm 7.00 Overcast BKN070 OVC080 84 69.4 62% 88 29.87 0.0
23 18:55 Calm 7.00 Mostly Cloudy SCT055 BKN080 85.6 69.6 59% 90 29.88 0.0
23 18:35 Calm 7.00 Partly Cloudy SCT055 SCT070 87.8 68.7 53% 92 29.88 0.0
23 18:15 SW 5 7.00 Partly Cloudy SCT060 SCT110 87.6 68.4 53% 91 29.88 0.0
23 17:55 W 9 7.00 Partly Cloudy SCT050 SCT060 87.3 68.2 53% 91 29.89 0.0
23 17:35 W 7 7.00 Mostly Cloudy SCT050 BKN070 BKN120 89.4 68.4 50% 93 29.9 0.0
23 17:15 W 7 7.00 Mostly Cloudy BKN065 BKN120 88.2 67.8 51% 92 29.9 0.0
23 16:55 W 8 7.00 Mostly Cloudy BKN065 BKN120 89.2 67.3 48% 93 29.91 0.0
23 16:35 W 7 7.00 Mostly Cloudy BKN065 87.4 68.2 53% 91 29.91 0.0
23 16:15 W 6 7.00 Partly Cloudy SCT060 86.7 67.5 53% 90 29.92 0.0
23 15:55 W 5 7.00 Mostly Cloudy BKN060 87.3 67.1 51% 90 29.92 0.0
23 15:35 W 6 7.00 Mostly Cloudy BKN060 87.6 66.2 49% 90 29.92 0.0
23 15:15 W 6 7.00 Fair CLR 88.2 66 48% 91 29.93 0.0
23 14:55 SW 5 7.00 Partly Cloudy SCT055 SCT070 88 66.7 49% 91 29.93 0.0
23 14:35 SW 3 7.00 Fair CLR 87.4 66.2 49% 90 29.94 0.0
23 14:15 W 6 7.00 Partly Cloudy SCT060 88.7 65.5 46% 91 29.94 0.0
23 13:55 Calm 7.00 Partly Cloudy SCT060 89.6 65.1 90.5 70.7 44% 92 29.95 0.0
23 13:35 W 8 10.00 Partly Cloudy SCT060 89.1 65.1 45% 91 29.94 0.0
23 13:15 SW 8 7.00 Partly Cloudy SCT060 SCT075 90.5 65.7 44% 93 29.94 0.0
23 12:55 SW 7 G 17 7.00 Partly Cloudy SCT075 88.7 65.5 46% 91 29.96 0.0
23 12:35 W 10 G 18 7.00 Partly Cloudy SCT049 SCT070 88.7 65.7 47% 91 29.96 0.0
23 12:15 W 5 7.00 Partly Cloudy SCT048 SCT055 SCT075 87.6 66.4 49% 90 29.97 0.0
23 11:55 W 7 7.00 Mostly Cloudy SCT048 BKN055 BKN075 87.4 67.3 51% 91 29.98 0.0
23 11:35 SW 5 10.00 Mostly Cloudy SCT043 SCT049 BKN060 87.4 67.8 52% 91 29.99 0.0
23 11:15 W 5 7.00 Mostly Cloudy SCT042 BKN050 BKN070 86.4 68 54% 90 29.99 0.0
23 10:55 SW 5 7.00 Partly Cloudy SCT044 86 69.6 58% 90 30 0.0
23 10:35 Calm 7.00 Partly Cloudy SCT055 84 70.9 65% 89 30.01 0.0
23 10:15 Calm 10.00 Partly Cloudy SCT055 82.4 70.5 67% 87 30.01 0.0
23 09:55 Calm 7.00 Fair CLR 81.7 71.1 70% 86 30.01 0.0
23 09:35 Calm 10.00 Fair CLR 81.3 72 73% 86 30.01 0.0
23 09:15 Calm 7.00 Fair CLR 77 72.5 86% 78 30.01 0.0
23 08:55 Calm 7.00 Fair CLR 75.9 73.2 91% 76 30.01 0.0
23 08:35 Calm 5.00 Mostly Cloudy BKN001 73 73 100% 30.01 0.0
23 08:15 Calm 1.25 Overcast OVC001 70.7 70.7 100% 30.01 0.0
23 07:55 Calm 1.50 Overcast OVC001 70.7 70.7 71.8 69.3 100% 30 0.0
23 07:35 Calm 4.00 Overcast OVC001 70 70 100% 30 0.0
23 07:15 Calm 1.25 Overcast OVC001 69.8 69.8 100% 30 0.0
23 06:55 Calm 0.25 Overcast OVC001 69.4 69.4 100% 30 0.0
23 06:35 Calm 0.75 NULL NULL 69.3 69.3 100% 30.01 0.0
23 06:15 Calm 0.75 NULL NULL 69.6 69.6 100% 30.01 0.0
23 05:55 Calm 1.00 NULL NULL 69.8 69.8 100% 30.01 0.0
23 05:35 Calm 0.50 Overcast OVC001 69.8 69.8 100% 30.01 0.0
23 05:15 Calm 1.25 Overcast OVC001 69.8 69.8 100% 30.01 0.0
23 04:55 Calm 1.75 Mostly Cloudy BKN001 70 70 100% 30.01 0.0
23 04:35 Calm 2.50 Mostly Cloudy BKN001 70 70 100% 30.01 0.0
23 04:15 Calm 2.50 Overcast OVC001 70.3 70.3 100% 30.01 0.0
23 03:55 Calm 1.50 Overcast OVC001 70.7 70.7 100% 30.01 0.0
23 03:35 Calm 2.50 Overcast OVC001 70.9 70.9 100% 30.01 0.0
23 03:15 Calm 3.00 Mostly Cloudy BKN001 BKN060 70.9 70.9 100% 30.02 0.0
23 02:55 Calm 3.00 Mostly Cloudy BKN001 71.1 71.1 100% 30.02 0.0
23 02:35 Calm 5.00 Partly Cloudy SCT001 71.2 71.2 100% 30.02 0.0
23 02:15 Calm 5.00 Partly Cloudy SCT001 71.6 71.6 100% 30.02 0.0
23 01:55 Calm 7.00 Fair CLR 71.8 71.8 85.8 71.8 100% 30.03 0.0
23 01:35 Calm 7.00 Fair CLR 72 72 100% 30.03 0.0
23 01:15 Calm 7.00 Fair CLR 72.5 72.5 100% 30.03 0.0
23 00:55 Calm 7.00 Fair CLR 72.9 72.9 100% 30.04 0.0
23 00:35 Calm 10.00 Fair CLR 73.4 73.4 100% 30.03 0.0
23 00:15 Calm 10.00 Fair CLR 73.6 73.6 100% 30.04 0.0
22 23:55 Calm 10.00 Fair CLR 74.3 74.3 100% 30.04 0.0
22 23:35 Calm 10.00 Fair CLR 75 75 100% 72 30.04 0.0
22 23:15 Calm 10.00 Fair CLR 75.2 75.2 100% 73 30.04 0.0
22 22:55 Calm 10.00 Fair CLR 75.6 75.6 100% 74 30.04 0.0
22 22:35 Calm 10.00 Fair CLR 76.3 76.3 100% 76 30.04 0.0
22 22:15 Calm 10.00 Fair CLR 76.6 76.5 99% 77 30.04 0.0
22 21:55 Calm 10.00 Fair CLR 77.9 75.7 93% 80 30.03 0.0
22 21:35 Calm 10.00 Fair CLR 78.4 73 84% 81 30.03 0.0
22 21:15 Calm 10.00 Fair CLR 80.2 72.3 77% 84 30.04 0.0
22 20:55 Calm 10.00 Fair CLR 81.5 72.1 73% 86 30.04 0.0
22 20:35 Calm 10.00 Fair CLR 82.6 73.8 75% 89 30.04 0.0
22 20:15 Calm 10.00 Fair CLR 83.8 73.4 71% 90 30.04 0.0
22 19:55 Calm 10.00 Fair CLR 86.5 74.1 91.8 86.4 67% 95 30.04 0.0
22 19:35 Calm 10.00 Fair CLR 88.5 72.9 60% 96 30.04 0.0
22 19:15 Calm 10.00 Partly Cloudy SCT110 88 71.2 58% 94 30.04 0.0
22 18:55 Calm 10.00 Mostly Cloudy BKN100 88.5 70.9 56% 94 30.04 0.0
22 18:35 Calm 10.00 Mostly Cloudy BKN090 88.5 70.3 55% 94 30.05 0.0
22 18:15 W 5 10.00 Partly Cloudy SCT090 89.2 69.8 53% 94 30.05 0.0
22 17:55 W 6 10.00 Partly Cloudy SCT110 89.8 70.3 53% 95 30.05 0.0
22 17:35 W 5 10.00 Mostly Cloudy SCT065 BKN110 88.7 70.3 55% 94 30.06 0.0
22 17:15 W 8 10.00 Overcast SCT065 SCT080 OVC100 90.1 71.8 55% 97 30.07 0.0
22 16:55 W 3 10.00 Overcast SCT055 BKN085 OVC110 88.7 70.9 56% 95 30.07 0.0
22 16:35 Calm 10.00 Mostly Cloudy SCT055 BKN090 88.7 71.4 57% 95 30.08 0.0
22 16:15 Calm 10.00 Mostly Cloudy BKN090 89.8 69.3 51% 95 30.08 0.0
22 15:55 Calm 10.00 Partly Cloudy SCT050 SCT100 90 68.4 49% 94 30.09 0.0
22 15:35 W 5 10.00 Mostly Cloudy SCT050 BKN100 91.8 70.3 50% 98 30.09 0.0
22 15:15 Calm 10.00 Mostly Cloudy BKN050 BKN100 88.3 68.7 52% 93 30.1 0.0
22 14:55 Calm 10.00 Mostly Cloudy SCT050 BKN100 89.6 67.1 48% 93 30.1 0.0
22 14:35 Calm 10.00 Partly Cloudy SCT100 88.5 68.2 51% 92 30.11 0.0
22 14:15 S 3 10.00 Partly Cloudy SCT090 90.3 68.2 48% 94 30.12 0.0
22 13:55 S 5 10.00 Partly Cloudy SCT090 90.7 70.2 91.4 69.8 51% 96 30.13 0.0
22 13:35 Calm 7.00 Partly Cloudy SCT090 89.4 69.6 52% 94 30.13 0.0
22 13:15 Calm 10.00 Partly Cloudy SCT045 SCT090 91.4 71.6 52% 99 30.13 0.0
22 12:55 Calm 10.00 Mostly Cloudy SCT045 BKN090 87.4 71.2 59% 93 30.14 0.0
22 12:35 Calm 10.00 Fair CLR 88 67.5 51% 91 30.15 0.0
22 12:15 W 5 10.00 Fair CLR 88.5 68.9 52% 93 30.15 0.0
22 11:55 Calm 10.00 Fair CLR 87.1 69.6 56% 92 30.16 0.0
22 11:35 Calm 7.00 Fair CLR 86 70.9 61% 91 30.16 0.0
22 11:15 Calm 10.00 Fair CLR 85.5 70.5 61% 90 30.17 0.0
22 10:55 Calm 7.00 Fair CLR 84.7 70 61% 89 30.18 0.0
22 10:35 Calm 10.00 Fair CLR 83.5 70.7 65% 88 30.18 0.0
22 10:15 Calm 10.00 Fair CLR 82.4 70.9 68% 87 30.18 0.0
22 09:55 Calm 7.00 Fair CLR 80.4 71.4 74% 84 30.19 0.0
22 09:35 Calm 7.00 Fair CLR 79.3 72.5 80% 83 30.2 0.0
22 09:15 Calm 7.00 Partly Cloudy SCT065 76.1 72.7 89% 76 30.2 0.0
22 08:55 Calm 5.00 Partly Cloudy SCT065 72.9 72.9 100% 30.21 0.0
22 08:35 Calm 5.00 Mostly Cloudy SCT001 BKN065 72.1 72.1 100% 30.21 0.0
22 08:15 Calm 5.00 Overcast OVC001 71.1 71.1 100% 30.21 0.0
22 07:55 Calm 1.50 Overcast OVC001 69.8 69.8 71.1 69.3 100% 30.21 0.0
22 07:35 Calm 2.00 Overcast OVC001 69.8 69.8 100% 30.21 0.0
22 07:15 Calm 0.75 Overcast OVC001 69.4 69.4 100% 30.2 0.0
22 06:55 Calm 0.75 Overcast OVC001 69.4 69.4 100% 30.21 0.0
22 06:35 Calm 2.00 Overcast OVC001 69.8 69.8 100% 30.21 0.0
22 06:15 Calm 4.00 Overcast OVC001 69.8 69.8 100% 30.21 0.0
22 05:55 Calm 5.00 Overcast OVC001 69.8 69.8 100% 30.2 0.0
22 05:35 Calm 3.00 Overcast OVC001 69.8 69.8 100% 30.2 0.0
22 05:15 Calm 5.00 Overcast OVC001 69.8 69.8 100% 30.2 0.0
22 04:55 Calm 5.00 Overcast OVC001 69.8 69.8 100% 30.2 0.0
22 04:35 Calm 5.00 Mostly Cloudy BKN001 69.8 69.8 100% 30.2 0.0
22 04:15 Calm 5.00 Fair CLR 69.8 69.8 100% 30.2 0.0
22 03:55 Calm 7.00 Partly Cloudy SCT002 70.2 70.2 100% 30.2 0.0
22 03:35 Calm 7.00 Partly Cloudy SCT002 70.7 70.7 100% 30.19 0.0
22 03:15 Calm 7.00 Fair CLR 70.9 70.9 100% 30.2 0.0
22 02:55 Calm 7.00 Fair CLR 70.9 70.9 100% 30.2 0.0
22 02:35 Calm 7.00 Fair CLR 70.9 70.9 100% 30.2 0.0
22 02:15 Calm 7.00 Fair CLR 70.7 70.7 100% 30.19 0.0
22 01:55 Calm 7.00 Fair CLR 71.2 71.2 84.4 71.2 100% 30.2 0.0
22 01:35 Calm 7.00 Fair CLR 71.6 71.6 100% 30.2 0.0
22 01:15 Calm 7.00 Fair CLR 71.8 71.8 100% 30.2 0.0
22 00:55 Calm 7.00 Fair CLR 72.3 72.3 100% 30.21 0.0
22 00:35 Calm 7.00 Fair CLR 72.7 72.7 100% 30.21 0.0
22 00:15 Calm 7.00 Fair CLR 72.9 72.9 100% 30.21 0.0
21 23:55 Calm 7.00 Fair CLR 73.4 73.4 100% 30.22 0.0
21 23:35 Calm 10.00 Fair CLR 73.9 73.9 100% 30.22 0.0
21 23:15 Calm 10.00 Fair CLR 74.3 74.3 100% 30.21 0.0
21 22:55 Calm 10.00 Fair CLR 75 75 100% 72 30.21 0.0
21 22:35 Calm 10.00 Fair CLR 75.2 75.2 100% 73 30.2 0.0
21 22:15 Calm 10.00 Fair CLR 75.9 75.9 100% 75 30.2 0.0
21 21:55 Calm 10.00 Fair CLR 76.6 76.3 99% 77 30.2 0.0
21 21:35 Calm 10.00 Fair CLR 77.9 72.7 84% 80 30.2 0.0
21 21:15 Calm 10.00 Fair CLR 79.5 73 81% 83 30.19 0.0
21 20:35 Calm 10.00 Fair CLR 81 72.3 75% 85 30.18 0.0
21 20:15 N 3 10.00 Partly Cloudy SCT065 82.9 72.5 71% 88 30.18 0.0
21 19:55 Calm 10.00 Partly Cloudy SCT065 SCT075 84.6 73.4 93 84.6 69% 91 30.18 0.0
21 19:35 Calm 10.00 Partly Cloudy SCT070 SCT075 86.9 74.1 66% 95 30.19 0.0
21 19:15 Calm 10.00 Partly Cloudy SCT070 87.6 73.9 64% 96 30.19 0.0
21 18:55 Calm 10.00 Partly Cloudy SCT070 86.2 74.1 67% 94 30.2 0.0
21 18:35 Calm 10.00 Mostly Cloudy SCT070 BKN110 88 73.2 62% 96 30.2 0.0
21 18:15 Calm 10.00 Mostly Cloudy SCT070 BKN110 85.8 72.7 65% 93 30.2 0.0
21 17:55 Calm 10.00 Mostly Cloudy SCT060 BKN070 87.1 71.6 60% 93 30.2 0.0
21 17:35 Calm 10.00 Overcast BKN060 OVC070 86.4 71.2 61% 92 30.2 0.0
21 17:15 Calm 10.00 Overcast OVC050 87.6 69.4 55% 92 30.21 0.0
21 16:55 Calm 10.00 Overcast OVC050 88.9 68 50% 93 30.21 0.0
21 16:35 Calm 10.00 Partly Cloudy SCT050 SCT060 93 67.3 43% 97 30.21 0.0
21 16:15 Calm 10.00 Partly Cloudy SCT060 SCT075 91.2 67.3 45% 95 30.21 0.0
21 15:55 Calm 10.00 Mostly Cloudy SCT050 BKN075 87.8 69.4 55% 92 30.22 0.0
21 15:35 Calm 10.00 Overcast OVC050 90.3 67.6 47% 94 30.23 0.0
21 15:15 W 6 10.00 Mostly Cloudy BKN050 91.8 67.1 44% 95 30.23 0.0
21 14:55 Calm 10.00 Partly Cloudy SCT065 SCT080 91.4 66 43% 94 30.24 0.0
21 14:35 Calm 10.00 Overcast BKN055 OVC065 88.2 68.5 52% 92 30.25 0.0
21 14:15 Calm 10.00 Mostly Cloudy BKN055 90.7 67.3 46% 94 30.25 0.0
21 13:55 Calm 10.00 Partly Cloudy SCT055 SCT065 89.4 67.1 93.4 68.7 48% 93 30.26 0.0
21 13:35 Calm 10.00 Partly Cloudy SCT070 91.4 64.8 41% 93 30.27 0.0
21 13:15 Calm 10.00 Partly Cloudy SCT070 SCT080 90.1 67.3 47% 94 30.28 0.0
21 12:55 N 7 7.00 Partly Cloudy SCT060 SCT070 89.4 68 49% 93 30.29 0.0
21 12:35 N 5 10.00 Mostly Cloudy SCT044 BKN050 90.7 68 47% 95 30.29 0.0
21 12:15 Calm 10.00 Fair CLR 87.8 67.8 52% 91 30.29 0.0
21 11:55 Calm 10.00 Fair CLR 88.5 68.2 51% 92 30.3 0.0
21 11:35 Calm 10.00 Fair CLR 86.5 67.8 54% 90 30.3 0.0
21 11:15 Calm 10.00 Fair CLR 84.7 69.6 61% 89 30.31 0.0
21 10:55 Calm 10.00 Fair CLR 85.3 69.4 59% 89 30.31 0.0
21 10:35 Calm 10.00 Fair CLR 82.8 69.1 63% 86 30.31 0.0
21 10:15 Calm 5.00 Fair CLR 81.5 70 68% 85 30.31 0.0
21 09:55 Calm 7.00 Fair CLR 78.8 70.3 75% 81 30.31 0.0
21 09:35 Calm 7.00 Fair CLR 77.2 70 79% 79 30.32 0.0
21 09:15 Calm 7.00 Fair CLR 75.4 70.2 84% 76 30.32 0.0
21 08:55 Calm 7.00 Fair CLR 74.1 70.3 88% 30.32 0.0
21 08:35 Calm 5.00 Partly Cloudy SCT004 72 70.9 96% 30.32 0.0
21 08:15 Calm 5.00 Partly Cloudy SCT002 69.8 69.8 100% 30.32 0.0
21 07:55 Calm 4.00 Overcast OVC002 68.2 68.2 71.1 67.1 100% 30.33 0.0
21 07:35 Calm 0.75 Overcast OVC002 67.8 67.8 100% 30.32 0.0
21 07:15 Calm 0.50 Overcast OVC002 67.3 67.3 100% 30.31 0.0
21 06:55 Calm 0.15 Overcast OVC002 67.1 67.1 100% 30.31 0.0
21 06:35 Calm 4.00 Mostly Cloudy BKN002 67.1 67.1 100% 30.31 0.0
21 06:15 Calm 4.00 Mostly Cloudy BKN002 67.3 67.3 100% 30.31 0.0
21 05:55 Calm 5.00 Fair CLR 67.6 67.6 100% 30.3 0.0
21 05:35 Calm 7.00 Fair CLR 68 68 100% 30.3 0.0
21 05:10 Calm 5.00 Partly Cloudy SCT002 68.4 68.4 100% 30.29 0.0
21 04:55 Calm 7.00 Partly Cloudy SCT002 68.2 68.2 100% 30.29 0.0
21 04:35 Calm 7.00 Fair CLR 68.5 68.5 100% 30.29 0.0
21 04:15 Calm 10.00 Fair CLR 68.5 68.5 100% 30.3 0.0
21 03:55 Calm 10.00 Fair CLR 68.9 68.9 100% 30.3 0.0
21 03:35 Calm 10.00 Fair CLR 69.3 69.3 100% 30.3 0.0
21 03:15 Calm 10.00 Fair CLR 70 70 100% 30.31 0.0
21 02:55 Calm 10.00 Fair CLR 69.8 69.8 100% 30.31 0.0
21 02:35 Calm 7.00 Fair CLR 70.2 70.2 100% 30.31 0.0
21 02:15 Calm 10.00 Fair CLR 70.7 70.7 100% 30.31 0.0
21 01:55 Calm 7.00 Fair CLR 70.7 70.7 85.8 70.7 100% 30.31 0.0
21 01:35 Calm 10.00 Fair CLR 71.2 71.2 100% 30.31 0.0
21 01:15 Calm 10.00 Fair CLR 71.6 71.6 100% 30.31 0.0
21 00:55 Calm 10.00 Fair CLR 72.1 72.1 100% 30.32 0.0
21 00:35 Calm 10.00 Fair CLR 73 73 100% 30.32 0.0
21 00:15 Calm 10.00 Fair CLR 73.8 73.8 100% 30.32 0.0
20 23:55 Calm 10.00 Partly Cloudy SCT050 SCT060 75.4 73.2 93% 74 30.32 0.0
20 23:35 Calm 10.00 Mostly Cloudy BKN050 BKN060 74.8 73.6 96% 30.32 0.0
Date Time (edt) Wind (mph) Vis. (mi.) Weather Sky Cond. Air Dwpt Max. Min. Relative Humidity Wind Chill (°F) Heat Index (°F) altimeter (in) sea level (mb) 1 hr 3 hr 6 hr
6 hour
Temperature (ºF) Pressure Precipitation (in)